Showing default

ACS 3, 59588

Orbit data source: Space-Track

ACS 3, 59588 is a payload satellite owned by ARC (US) in SSO that was launched on Tue, 23 Apr 2024 UTC via an ELECTRON launch vehicle from the Rocket Lab Launch Complex (RLLC). Payload-class satellites include a variety of spacecraft equipped with specific instruments for various scientific and technological missions. These include communications satellites like Starlink; space stations such as the ISS; scientific satellites like the Hubble; Earth observation satellites from companies like Planet Labs, Umbra, and HawkEye 360; GPS; miniature CubeSats for education and research; and military/defense satellites.

Loading next visibility...
Identifier
59588, 2024-077B
Orbit
SSO
Last TLE update
16 hours ago
Origin
Manufacturer
ARC/NANAVU
Mission
Operational spacecraft
Bus & Motor
CUBESAT 12U, Unknown motor
Mass
16.1 kg wet, 16.1 kg dry
Launch date (UTC)
2024-04-23 (1 year ago)
Launch vehicle
ELECTRON
Launch site
Rocket Lab Launch Complex (RLLC)
Object type
Payload
Rocket body
Debris
Shape & HBR
Unknown
Radar Cross Section
Large (>1 m²)

Expand to show TLE details & history

TLE from 16 hours ago
0 ACS 3
1 59588U 24077B   25115.02622185  .00017930  00000-0  17912-1 0  9996
2 59588  97.4828 120.5766 0052375  80.4248 280.2821 13.77211535 50171
Epoch: 2025-04-25T00:37Z
Definitive object data (Epoch: 2025-04-25T00:37:45.567Z)
Latitude
-0.00005°
Longitude
-102.15247°
Altitude
970.006 km
Speed
7.37 km/s
True Right ascension
08h 02m 18s
True Declination
0° 00' 00"
Sunlit
Object was in daylight at TLE epoch
Visualization TLE readout
Latitude
-17.67291°
Longitude
-99.25397°
Altitude
984.534 km
Speed
7.357 km/s
Apparent Right ascension
09h 33m 10s
Apparent Declination
-30° 02' 23"
Sunlit
Object is in daylight
Visualization observer readout
Local Sidereal Time
23:29:24
Azimuth
76.413° E
Elevation
-64.371°
Doppler factor
1
Orbital elements
Apogee altitude
1,009.447 km
Perigee altitude
932.465 km
Semi-major axis
7,349.093 km
Eccentricity
0.0052375
Inclination
97.4828°
RAAN
120.5766°
Arg. of periapsis
80.4248°
True anomaly
279.69088°
Mean anomaly
280.2821°
Eccentric anomaly
279.98656°
Mean motion
3.44503 °/min
BSTAR
0.017912
Orbital period
104.5 mins
Loading maneuver chart data...
Loading SW <> Apogee altitude chart data...
Loading historical data...
Loading historical data...
Loading historical data...
Loading historical data...
Loading historical data...
Loading historical data...
Loading historical data...
Other satellites on launch #77 in the year 2024 (2024-04-23 UTC)

ACS 3 Visibility forecast

Observer location: undefined°, undefined°

Span
Click to sort rows by Start time (UTC) header in descending order
Start Az.
Max El. time (UTC)
Max El. Az.
Max El.
End time (UTC)
End Az.
10 mins2025-04-25 23:25:09.459Z129.725° SE2025-04-25 23:30:09.459Z70.585° E28.811°2025-04-25 23:35:09.459Z8.295° NNE
8 mins2025-04-26 01:10:09.459Z212.657° SW2025-04-26 01:13:09.459Z256.227° W29.493°2025-04-26 01:18:09.459Z325.696° NNW
8 mins2025-04-26 12:07:09.459Z45.444° ENE2025-04-26 12:11:09.459Z99.257° ESE24.714°2025-04-26 12:15:09.459Z146.064° SSE
9 mins2025-04-26 13:50:09.459Z351.64° N2025-04-26 13:54:09.459Z292.782° NW34.029°2025-04-26 13:59:09.459Z223.452° SW
|